| time (UTC) | temp C | wind direction | speed KPH | gust KPH | rain 1hr cm | rain 24hr cm | rain mn cm | humidity % | barometer mb |
| 20260507154517 | 13 | 309 | 0.0 | 6.4 | 0.00 | 0.00 | 0.00 | 38 | 1012.4 |
| 20260507153016 | 13 | 53 | 0.0 | 3.2 | 0.00 | 0.00 | 0.00 | 43 | 1012.4 |
| 20260507151515 | 13 | 56 | 0.0 | 3.2 | 0.00 | 0.00 | 0.00 | 40 | 1012.8 |
| 20260507150014 | 12 | 95 | 0.0 | 3.2 | 0.00 | 0.00 | 0.00 | 43 | 1012.8 |
| 20260507144513 | 12 | 348 | 0.0 | 3.2 | 0.00 | 0.00 | 0.00 | 44 | 1012.9 |
| 20260507143012 | 12 | 281 | 0.0 | 3.2 | 0.00 | 0.00 | 0.00 | 45 | 1013.1 |
| 20260507141510 | 12 | 311 | 0.0 | 3.2 | 0.00 | 0.00 | 0.00 | 49 | 1013.1 |
| 20260507140018 | 12 | 96 | 0.0 | 1.6 | 0.00 | 0.00 | 0.00 | 48 | 1013.2 |
| 20260507134508 | 12 | 27 | 0.0 | 3.2 | 0.00 | 0.00 | 0.00 | 51 | 1013.4 |
| 20260507133008 | 12 | 257 | 0.0 | 0.0 | 0.00 | 0.00 | 0.00 | 52 | 1013.5 |
| 20260507131505 | 12 | 278 | 0.0 | 0.0 | 0.00 | 0.00 | 0.00 | 53 | 1013.3 |
| 20260507130005 | 12 | 271 | 0.0 | 0.0 | 0.00 | 0.00 | 0.00 | 55 | 1013.2 |
| 20260507124509 | 12 | 257 | 0.0 | 3.2 | 0.00 | 0.00 | 0.00 | 56 | 1013.1 |
| 20260507123002 | 12 | 288 | 0.0 | 1.6 | 0.00 | 0.00 | 0.00 | 55 | 1013.2 |
| 20260507121601 | 12 | 271 | 0.0 | 1.6 | 0.00 | 0.00 | 0.00 | 56 | 1013.3 |
| 20260507120059 | 12 | 266 | 0.0 | 1.6 | 0.00 | 0.00 | 0.00 | 50 | 1013.1 |
| 20260507114556 | 12 | 259 | 0.0 | 3.2 | 0.00 | 0.00 | 0.00 | 52 | 1012.9 |
| 20260507113054 | 13 | 3 | 0.0 | 0.0 | 0.00 | 0.00 | 0.00 | 52 | 1012.6 |
| 20260507111551 | -17 | 0.0 | 0.0 | 0.00 | 0.00 | 0.00 | 1012.6 | ||
| 20260507110051 | -17 | 0.0 | 0.0 | 0.00 | 0.00 | 0.00 | 1012.5 | ||
| 20260507104543 | -17 | 0.0 | 0.0 | 0.00 | 0.00 | 0.00 | 1012.5 | ||
| 20260507103039 | -17 | 0.0 | 0.0 | 0.00 | 0.00 | 0.00 | 1012.3 | ||
| 20260507101553 | -17 | 65 | 0.0 | 6.4 | 0.00 | 0.00 | 0.00 | 1012.3 | |
| 20260507100034 | 12 | 279 | 0.0 | 3.2 | 0.00 | 0.00 | 0.00 | 62 | 1012.1 |
| 20260507094530 | 12 | 96 | 0.0 | 3.2 | 0.00 | 0.00 | 0.00 | 61 | 1011.9 |
| 20260507093032 | 12 | 84 | 0.0 | 1.6 | 0.00 | 0.00 | 0.00 | 62 | 1012.0 |
| 20260507091627 | 12 | 225 | 0.0 | 3.2 | 0.00 | 0.00 | 0.00 | 64 | 1011.7 |
| 20260507090024 | 12 | 342 | 0.0 | 3.2 | 0.00 | 0.00 | 0.00 | 63 | 1011.6 |
| 20260507084527 | 12 | 73 | 0.0 | 3.2 | 0.00 | 0.00 | 0.00 | 64 | 1011.8 |
| 20260507083025 | 12 | 139 | 0.0 | 4.8 | 0.00 | 0.00 | 0.00 | 64 | 1011.6 |
| 20260507081525 | 12 | 159 | 0.0 | 0.0 | 0.00 | 0.00 | 0.00 | 66 | 1011.6 |
| 20260507080020 | 12 | 270 | 0.0 | 1.6 | 0.00 | 0.00 | 0.00 | 64 | 1011.2 |
| 20260507074519 | 12 | 276 | 0.0 | 3.2 | 0.00 | 0.00 | 0.00 | 64 | 1011.0 |
| 20260507073019 | 12 | 125 | 0.0 | 3.2 | 0.00 | 0.00 | 0.00 | 65 | 1011.1 |
| 20260507071517 | 12 | 256 | 0.0 | 9.7 | 0.00 | 0.00 | 0.00 | 65 | 1011.0 |
| 20260507070016 | 12 | 103 | 0.0 | 9.7 | 0.00 | 0.00 | 0.00 | 65 | 1010.9 |
| 20260507064515 | 12 | 255 | 0.0 | 6.4 | 0.00 | 0.00 | 0.00 | 65 | 1011.1 |
| 20260507063014 | 12 | 285 | 0.0 | 3.2 | 0.00 | 0.00 | 0.00 | 66 | 1011.1 |
| 20260507061527 | 12 | 342 | 0.0 | 4.8 | 0.00 | 0.00 | 0.00 | 67 | 1011.2 |
| 20260507060011 | 12 | 26 | 0.0 | 8.0 | 0.00 | 0.00 | 0.00 | 67 | 1010.8 |
| 20260507054508 | 13 | 36 | 0.0 | 3.2 | 0.00 | 0.00 | 0.00 | 70 | 1011.0 |
| 20260507053006 | 13 | 282 | 0.0 | 3.2 | 0.00 | 0.00 | 0.00 | 69 | 1011.2 |
| 20260507051504 | 13 | 259 | 0.0 | 1.6 | 0.00 | 0.00 | 0.00 | 69 | 1010.9 |
| 20260507050003 | 13 | 345 | 0.0 | 1.6 | 0.00 | 0.00 | 0.00 | 69 | 1010.6 |
| 20260507044604 | 14 | 284 | 0.0 | 1.6 | 0.00 | 0.00 | 0.00 | 69 | 1011.2 |
| 20260507043056 | 15 | 162 | 0.0 | 6.4 | 0.00 | 0.00 | 0.00 | 66 | 1011.1 |
| 20260507041553 | 15 | 323 | 1.6 | 8.0 | 0.00 | 0.00 | 0.00 | 64 | 1011.1 |
| 20260507040051 | 15 | 324 | 0.0 | 1.6 | 0.00 | 0.00 | 0.00 | 65 | 1010.7 |
| 20260507034550 | 15 | 252 | 0.0 | 4.8 | 0.00 | 0.00 | 0.00 | 64 | 1010.5 |
| 20260507033048 | 16 | 196 | 1.6 | 8.0 | 0.00 | 0.00 | 0.00 | 63 | 1010.7 |
| 20260507031547 | 16 | 330 | 1.6 | 9.7 | 0.00 | 0.00 | 0.00 | 61 | 1010.8 |
| 20260507030050 | 17 | 119 | 0.0 | 0.0 | 0.00 | 0.00 | 0.00 | 64 | 1010.2 |
| 20260507024546 | 17 | 86 | 0.0 | 11.3 | 0.00 | 0.00 | 0.00 | 63 | 1009.5 |
| 20260507023045 | 17 | 313 | 0.0 | 4.8 | 0.00 | 0.00 | 0.00 | 63 | 1010.0 |
| 20260507021546 | 17 | 8 | 1.6 | 8.0 | 0.00 | 0.00 | 0.00 | 64 | 1009.7 |
| 20260507020051 | 18 | 280 | 0.0 | 3.2 | 0.00 | 0.00 | 0.00 | 65 | 1009.4 |
| 20260507014557 | 18 | 261 | 0.0 | 3.2 | 0.00 | 0.00 | 0.00 | 65 | 1009.4 |
| 20260507013043 | 18 | 251 | 0.0 | 4.8 | 0.00 | 0.00 | 0.00 | 66 | 1009.2 |
| 20260507011542 | 18 | 274 | 0.0 | 3.2 | 0.00 | 0.00 | 0.00 | 69 | 1009.7 |
| 20260507010045 | 18 | 162 | 0.0 | 0.0 | 0.00 | 0.00 | 0.00 | 70 | 1009.6 |
| 20260507004543 | 18 | 161 | 0.0 | 0.0 | 0.00 | 0.00 | 0.00 | 70 | 1009.3 |
| 20260507003040 | 18 | 161 | 0.0 | 0.0 | 0.00 | 0.00 | 0.00 | 70 | 1009.2 |
| 20260507001540 | 18 | 161 | 0.0 | 0.0 | 0.00 | 0.00 | 0.00 | 69 | 1009.1 |
| 20260507000043 | 19 | 161 | 0.0 | 0.0 | 0.00 | 0.00 | 0.00 | 68 | 1008.8 |
| 20260506234539 | 20 | 161 | 0.0 | 0.0 | 0.00 | 0.00 | 0.00 | 67 | 1008.8 |
| 20260506233039 | 20 | 161 | 0.0 | 0.0 | 0.00 | 0.00 | 0.00 | 65 | 1008.5 |
| 20260506231538 | 21 | 154 | 0.0 | 0.0 | 0.00 | 0.00 | 0.00 | 63 | 1008.2 |
| 20260506230037 | 20 | 147 | 0.0 | 4.8 | 0.00 | 0.00 | 0.00 | 63 | 1008.1 |
| 20260506224538 | 21 | 321 | 0.0 | 11.3 | 0.00 | 0.00 | 0.00 | 62 | 1008.1 |
| 20260506223037 | 21 | 174 | 0.0 | 6.4 | 0.00 | 0.00 | 0.00 | 61 | 1008.0 |
| 20260506221534 | 21 | 134 | 0.0 | 4.8 | 0.00 | 0.00 | 0.00 | 61 | 1008.0 |
| 20260506220038 | 21 | 158 | 0.0 | 6.4 | 0.00 | 0.00 | 0.00 | 61 | 1008.0 |
| 20260506214534 | 21 | 139 | 0.0 | 4.8 | 0.00 | 0.00 | 0.00 | 62 | 1008.0 |
| 20260506213034 | 21 | 131 | 0.0 | 6.4 | 0.00 | 0.00 | 0.00 | 61 | 1008.0 |
| 20260506211533 | 21 | 189 | 1.6 | 8.0 | 0.00 | 0.00 | 0.00 | 61 | 1008.0 |
| 20260506210033 | 21 | 140 | 1.6 | 8.0 | 0.00 | 0.00 | 0.00 | 61 | 1007.8 |
| 20260506204532 | 21 | 162 | 1.6 | 8.0 | 0.00 | 0.00 | 0.00 | 61 | 1007.7 |
| 20260506203031 | 21 | 167 | 1.6 | 9.7 | 0.00 | 0.00 | 0.00 | 62 | 1007.6 |
| 20260506201541 | 20 | 176 | 1.6 | 8.0 | 0.00 | 0.00 | 0.00 | 62 | 1007.7 |
| 20260506200029 | 20 | 147 | 3.2 | 11.3 | 0.00 | 0.00 | 0.00 | 62 | 1007.9 |
| 20260506194529 | 20 | 171 | 1.6 | 12.9 | 0.00 | 0.00 | 0.00 | 62 | 1007.8 |
| 20260506193027 | 20 | 209 | 0.0 | 12.9 | 0.00 | 0.00 | 0.00 | 63 | 1007.8 |
| 20260506191525 | 20 | 162 | 1.6 | 11.3 | 0.00 | 0.00 | 0.00 | 63 | 1007.8 |
| 20260506190023 | 20 | 142 | 4.8 | 16.1 | 0.00 | 0.00 | 0.00 | 62 | 1008.1 |
| 20260506184521 | 19 | 154 | 0.0 | 8.0 | 0.00 | 0.00 | 0.00 | 64 | 1008.4 |
| 20260506183022 | 19 | 96 | 0.0 | 6.4 | 0.00 | 0.00 | 0.00 | 63 | 1008.6 |
| 20260506181519 | 18 | 142 | 0.0 | 4.8 | 0.00 | 0.00 | 0.00 | 64 | 1008.5 |
| 20260506180018 | 18 | 156 | 1.6 | 9.7 | 0.00 | 0.00 | 0.00 | 63 | 1008.8 |
| 20260506174517 | 18 | 107 | 3.2 | 11.3 | 0.00 | 0.00 | 0.00 | 64 | 1008.7 |
| 20260506173016 | 18 | 162 | 3.2 | 11.3 | 0.00 | 0.00 | 0.00 | 64 | 1008.8 |
| 20260506171516 | 17 | 142 | 1.6 | 12.9 | 0.00 | 0.00 | 0.00 | 65 | 1008.9 |
| 20260506170015 | 17 | 141 | 3.2 | 9.7 | 0.00 | 0.00 | 0.00 | 66 | 1008.9 |
| 20260506164512 | 17 | 117 | 3.2 | 8.0 | 0.00 | 0.00 | 0.00 | 67 | 1009.0 |
| 20260506163022 | 17 | 146 | 1.6 | 12.9 | 0.00 | 0.00 | 0.00 | 68 | 1009.3 |
| 20260506161511 | 16 | 36 | 1.6 | 17.7 | 0.00 | 0.00 | 0.00 | 70 | 1009.2 |
| 20260506160014 | 16 | 338 | 1.6 | 16.1 | 0.00 | 0.00 | 0.00 | 72 | 1009.1 |